EW7239 Weather Reports


time (UTC)temp
C
wind
direction
speed
KPH
gust
KPH
rain 1hr
cm
rain 24hr
cm
rain mn
cm
humidity
%
barometer
mb
20260502191538 23 232 3.2 8.0 0.00 0.00 0.00 60 1013.2
20260502191039 23 232 3.2 8.0 0.00 0.00 0.00 60 1013.4
20260502190539 23 232 3.2 8.0 0.00 0.00 0.00 59 1013.6
20260502190309 23 230 3.2 8.0 0.00 0.00 0.00 61 1013.6
20260502185539 23 229 3.2 9.7 0.00 0.00 0.00 62 1013.7
20260502185309 22 229 4.8 11.3 0.00 0.00 0.00 62 1013.8
20260502184538 22 225 6.4 11.3 0.00 0.00 0.00 64 1013.8
20260502184038 22 228 4.8 9.7 0.00 0.00 0.00 66 1014.0
20260502183538 22 221 3.2 8.0 0.00 0.00 0.00 66 1014.1
20260502183038 21 221 4.8 11.3 0.00 0.00 0.00 68 1014.1
20260502182538 21 221 6.4 12.9 0.00 0.00 0.00 67 1014.3
20260502182039 21 216 4.8 12.9 0.00 0.00 0.00 69 1014.3
20260502181539 21 221 4.8 12.9 0.00 0.00 0.00 70 1014.4
20260502181039 20 241 4.8 9.7 0.00 0.00 0.00 70 1014.3
20260502180538 20 242 4.8 11.3 0.00 0.00 0.00 72 1014.3
20260502164301 17 240 1.6 8.0 0.00 0.00 0.00 85 1014.8
20260502163529 17 242 1.6 6.4 0.00 0.00 0.00 85 1014.8
20260502162525 16 242 1.6 4.8 0.00 0.00 0.00 84 1014.9
20260502162025 16 242 1.6 4.8 0.00 0.00 0.00 84 1014.9
20260502161524 16 242 1.6 6.4 0.00 0.00 0.00 84 1015.0
20260502161026 16 242 1.6 6.4 0.00 0.00 0.00 84 1015.0
20260502160755 16 242 0.0 6.4 0.00 0.00 0.00 83 1015.0
20260502152009 15 242 1.6 4.8 0.00 0.00 0.00 83 1015.3
20260502151506 15 242 1.6 4.8 0.00 0.00 0.00 83 1015.3
20260502151007 15 242 0.0 4.8 0.00 0.00 0.00 83 1015.2
20260502150505 14 242 0.0 4.8 0.00 0.00 0.00 84 1015.2
20260502123439 13 224 3.2 6.4 0.00 0.00 0.00 86 1013.9
20260502122938 13 224 3.2 6.4 0.00 0.00 0.00 86 1013.8
20260502122439 13 224 1.6 6.4 0.00 0.00 0.00 86 1013.7
20260502121937 13 224 0.0 4.8 0.00 0.00 0.00 86 1013.7
20260502121436 13 224 0.0 0.0 0.00 0.00 0.00 86 1013.6
20260502120937 13 224 0.0 0.0 0.00 0.00 0.00 86 1013.6
20260502120436 13 224 1.6 4.8 0.00 0.00 0.00 86 1013.5
20260502115436 13 224 1.6 4.8 0.00 0.00 0.00 86 1013.5
20260502114935 13 224 1.6 4.8 0.00 0.00 0.00 86 1013.5
20260502114704 13 224 1.6 4.8 0.00 0.00 0.00 86 1013.4
20260502114206 13 224 1.6 6.4 0.00 0.00 0.00 86 1013.4
20260502113434 13 224 1.6 6.4 0.00 0.00 0.00 86 1013.4
20260502112931 13 224 1.6 4.8 0.00 0.00 0.00 86 1013.4
20260502112429 13 224 1.6 6.4 0.00 0.00 0.00 86 1013.2
20260502112159 13 224 0.0 6.4 0.00 0.00 0.00 86 1013.2
20260502111429 13 224 0.0 0.0 0.00 0.00 0.00 86 1013.4
20260502111158 13 224 0.0 0.0 0.00 0.00 0.00 86 1013.4
20260502110425 13 224 0.0 0.0 0.00 0.00 0.00 86 1013.3
20260502105925 13 224 0.0 0.0 0.00 0.00 0.00 86 1013.2
20260502105422 13 224 0.0 0.0 0.00 0.00 0.00 86 1013.2
20260502104922 14 224 0.0 0.0 0.00 0.00 0.00 86 1013.3
20260502104423 13 224 0.0 0.0 0.00 0.00 0.00 86 1013.2
20260502103920 13 224 0.0 0.0 0.00 0.00 0.00 86 1013.2
20260502103420 13 224 0.0 0.0 0.00 0.00 0.00 86 1013.1
20260502102921 13 224 0.0 1.6 0.00 0.00 0.00 85 1013.2
20260502102419 14 224 1.6 3.2 0.00 0.00 0.00 85 1013.2
20260502102148 14 224 0.0 3.2 0.00 0.00 0.00 85 1013.2
20260502101419 14 224 0.0 1.6 0.00 0.00 0.00 85 1013.2
20260502100917 14 224 0.0 0.0 0.00 0.00 0.00 85 1013.3
20260502100416 14 224 0.0 0.0 0.00 0.00 0.00 85 1013.2
20260502091413 15 224 0.0 1.6 0.00 0.00 0.00 84 1013.5
20260502090910 15 224 0.0 1.6 0.00 0.00 0.00 84 1013.5
20260502090639 15 224 1.6 3.2 0.00 0.00 0.00 84 1013.5
20260502090142 15 224 0.0 3.2 0.00 0.00 0.00 84 1013.5
20260502071354 16 224 3.2 6.4 0.00 0.00 0.00 81 1014.2
20260502070853 16 224 1.6 4.8 0.00 0.00 0.00 81 1014.2
20260502070354 16 224 1.6 4.8 0.00 0.00 0.00 81 1014.2
20260502070124 16 224 1.6 4.8 0.00 0.00 0.00 81 1014.4
20260502065353 16 224 1.6 4.8 0.00 0.00 0.00 81 1014.3
20260502064852 16 224 1.6 4.8 0.00 0.00 0.00 80 1014.2
20260502063851 16 224 1.6 6.4 0.00 0.00 0.00 80 1014.2
20260502063352 16 224 3.2 6.4 0.00 0.00 0.00 80 1014.2
20260502063122 16 224 3.2 8.0 0.00 0.00 0.00 80 1014.1
20260502062351 16 224 4.8 8.0 0.00 0.00 0.00 80 1014.0
20260502061850 16 224 3.2 6.4 0.00 0.00 0.00 79 1014.1
20260502061350 16 224 3.2 6.4 0.00 0.00 0.00 79 1014.1
20260502060851 16 224 3.2 8.0 0.00 0.00 0.00 79 1014.1
20260502060352 16 224 4.8 8.0 0.00 0.00 0.00 79 1014.1
20260502055852 16 224 4.8 8.0 0.00 0.00 0.00 79 1014.1
20260502055352 16 224 4.8 8.0 0.00 0.00 0.00 79 1014.2
20260502055123 17 224 4.8 8.0 0.00 0.00 0.00 79 1014.2
20260502054352 17 224 4.8 8.0 0.00 0.00 0.00 79 1014.2
20260502053851 17 224 4.8 8.0 0.00 0.00 0.00 78 1014.2
20260502053352 17 224 3.2 8.0 0.00 0.00 0.00 78 1014.2
20260502052851 17 224 4.8 6.4 0.00 0.00 0.00 78 1014.2
20260502052622 17 224 4.8 8.0 0.00 0.00 0.00 78 1014.2
20260502052122 17 224 4.8 8.0 0.00 0.00 0.00 77 1014.1
20260502051350 17 224 4.8 8.0 0.00 0.00 0.00 77 1014.1
20260502050852 17 224 3.2 8.0 0.00 0.00 0.00 77 1014.0
20260502050351 17 224 3.2 8.0 0.00 0.00 0.00 76 1014.1
20260502045350 17 224 3.2 8.0 0.00 0.00 0.00 77 1014.0
20260502044850 17 224 3.2 8.0 0.00 0.00 0.00 76 1014.0
20260502044351 17 224 4.8 8.0 0.00 0.00 0.00 75 1013.9
20260502043850 18 224 3.2 9.7 0.00 0.00 0.00 75 1013.8
20260502043350 18 223 4.8 9.7 0.00 0.00 0.00 75 1013.8
20260502042849 18 223 4.8 9.7 0.00 0.00 0.00 75 1013.7
20260502042348 18 223 6.4 12.9 0.00 0.00 0.00 74 1013.5
20260502041849 18 223 6.4 12.9 0.00 0.00 0.00 74 1013.5
20260502041349 18 223 6.4 12.9 0.00 0.00 0.00 73 1013.5
20260502040846 18 223 6.4 12.9 0.00 0.00 0.00 73 1013.5
20260502040348 18 225 6.4 12.9 0.00 0.00 0.00 72 1013.4
20260502040125 18 223 8.0 12.9 0.00 0.00 0.00 72 1013.2
20260502035346 18 223 8.0 12.9 0.00 0.00 0.00 72 1013.2
20260502034843 18 224 8.0 12.9 0.00 0.00 0.00 71 1013.1
20260502034343 19 225 8.0 16.1 0.00 0.00 0.00 71 1013.0
20260502034112 19 228 8.0 16.1 0.00 0.00 0.00 70 1012.9
20260502033341 19 228 8.0 14.5 0.00 0.00 0.00 70 1012.9
20260502032838 19 229 8.0 16.1 0.00 0.00 0.00 69 1012.7
20260502032340 19 231 8.0 16.1 0.00 0.00 0.00 69 1012.7
20260502031839 19 229 8.0 14.5 0.00 0.00 0.00 69 1012.6
20260502031337 19 227 9.7 14.5 0.00 0.00 0.00 69 1012.6
20260502030837 19 225 9.7 14.5 0.00 0.00 0.00 68 1012.7
20260502030337 20 221 8.0 14.5 0.00 0.00 0.00 68 1012.6
20260502025837 20 222 8.0 16.1 0.00 0.00 0.00 67 1012.5
20260502025607 20 224 8.0 16.1 0.00 0.00 0.00 67 1012.5
20260502024837 20 219 8.0 14.5 0.00 0.00 0.00 66 1012.3
20260502024608 20 225 8.0 12.9 0.00 0.00 0.00 66 1012.2
20260502024103 20 219 8.0 14.5 0.00 0.00 0.00 65 1012.1
20260502023329 20 219 8.0 14.5 0.00 0.00 0.00 64 1012.0
20260502022828 21 223 8.0 14.5 0.00 0.00 0.00 64 1011.9
20260502022328 21 220 8.0 14.5 0.00 0.00 0.00 63 1011.9
20260502021824 21 220 9.7 16.1 0.00 0.00 0.00 63 1011.9
20260502021323 21 221 9.7 16.1 0.00 0.00 0.00 62 1011.8
20260502020822 21 215 8.0 14.5 0.00 0.00 0.00 61 1011.7
20260502020318 21 215 9.7 14.5 0.00 0.00 0.00 61 1011.7
20260502020051 22 213 9.7 17.7 0.00 0.00 0.00 60 1011.6
20260502015316 22 211 9.7 20.9 0.00 0.00 0.00 59 1011.4
20260502014818 22 222 9.7 20.9 0.00 0.00 0.00 59 1011.3
20260502014315 22 209 11.3 20.9 0.00 0.00 0.00 58 1011.3
20260502013812 23 222 11.3 20.9 0.00 0.00 0.00 58 1011.2
20260502013312 23 215 9.7 19.3 0.00 0.00 0.00 57 1011.1
20260502012812 23 217 9.7 19.3 0.00 0.00 0.00 56 1011.0
20260502012311 23 216 9.7 17.7 0.00 0.00 0.00 55 1011.0
20260502011810 23 213 11.3 17.7 0.00 0.00 0.00 55 1011.0
20260502011309 23 222 11.3 17.7 0.00 0.00 0.00 55 1011.0
20260502010810 24 224 11.3 19.3 0.00 0.00 0.00 55 1011.0
20260502010538 24 196 11.3 19.3 0.00 0.00 0.00 54 1011.1
20260502005807 24 233 12.9 20.9 0.00 0.00 0.00 54 1011.0
20260502005306 25 217 12.9 20.9 0.00 0.00 0.00 52 1011.0
20260502004807 25 226 12.9 20.9 0.00 0.00 0.00 51 1010.9
20260502004308 25 218 11.3 22.5 0.00 0.00 0.00 52 1010.9
20260502003807 25 218 12.9 22.5 0.00 0.00 0.00 51 1010.9
20260502003306 25 232 12.9 22.5 0.00 0.00 0.00 51 1011.0
20260502002804 25 221 14.5 25.7 0.00 0.00 0.00 50 1010.9
20260502002305 25 218 14.5 25.7 0.00 0.00 0.00 49 1010.8
20260502001802 26 229 12.9 22.5 0.00 0.00 0.00 49 1010.8
20260502001301 26 217 12.9 20.9 0.00 0.00 0.00 48 1010.9
20260502000801 26 222 11.3 20.9 0.00 0.00 0.00 48 1010.8
20260502000303 27 225 11.3 24.1 0.00 0.00 0.00 47 1010.8
20260501235800 27 208 11.3 24.1 0.00 0.00 0.00 46 1010.8
20260501235300 27 216 11.3 20.9 0.00 0.00 0.00 45 1010.8
20260501235027 27 224 11.3 19.3 0.00 0.00 0.00 44 1010.7
20260501234256 28 240 11.3 20.9 0.00 0.00 0.00 43 1010.7
20260501233757 28 227 11.3 20.9 0.00 0.00 0.00 43 1010.7
20260501233527 27 263 11.3 22.5 0.00 0.00 0.00 42 1010.7
20260501233025 27 265 11.3 22.5 0.00 0.00 0.00 42 1010.8
20260501232253 28 248 12.9 20.9 0.00 0.00 0.00 43 1010.8
20260501231749 27 254 11.3 20.9 0.00 0.00 0.00 43 1010.7
20260501231249 28 214 9.7 20.9 0.00 0.00 0.00 42 1010.8
20260501230750 27 240 9.7 17.7 0.00 0.00 0.00 42 1010.8
20260501230519 27 229 9.7 17.7 0.00 0.00 0.00 43 1010.9
20260501225748 27 269 9.7 19.3 0.00 0.00 0.00 43 1011.0
20260501224747 27 253 9.7 20.9 0.00 0.00 0.00 44 1011.3
20260501224247 27 221 11.3 22.5 0.00 0.00 0.00 44 1011.4
20260501223744 27 238 11.3 22.5 0.00 0.00 0.00 44 1011.4
20260501223243 27 248 11.3 20.9 0.00 0.00 0.00 46 1011.5
20260501222744 27 238 11.3 20.9 0.00 0.00 0.00 47 1011.6
20260501222240 27 222 9.7 22.5 0.00 0.00 0.00 46 1011.7
20260501221740 27 223 9.7 22.5 0.00 0.00 0.00 47 1011.8
20260501221239 27 240 9.7 20.9 0.00 0.00 0.00 47 1011.8
20260501220734 27 229 9.7 17.7 0.00 0.00 0.00 48 1011.8
20260501220235 26 229 9.7 17.7 0.00 0.00 0.00 48 1011.9
20260501215734 26 221 9.7 22.5 0.00 0.00 0.00 47 1012.0
20260501215234 27 259 9.7 22.5 0.00 0.00 0.00 47 1012.1
20260501214734 27 239 11.3 19.3 0.00 0.00 0.00 47 1012.1
20260501214234 27 250 9.7 19.3 0.00 0.00 0.00 48 1012.2
20260501213733 26 224 8.0 17.7 0.00 0.00 0.00 48 1012.2
20260501213233 26 257 9.7 17.7 0.00 0.00 0.00 49 1012.3
20260501213006 26 223 11.3 19.3 0.00 0.00 0.00 50 1012.5
20260501212233 26 228 9.7 19.3 0.00 0.00 0.00 49 1012.5
20260501211730 25 223 8.0 17.7 0.00 0.00 0.00 49 1012.6
20260501211228 25 227 8.0 19.3 0.00 0.00 0.00 49 1012.7
20260501210729 25 245 9.7 19.3 0.00 0.00 0.00 51 1012.8
20260501210224 25 232 8.0 19.3 0.00 0.00 0.00 51 1012.9
20260501205955 25 214 8.0 19.3 0.00 0.00 0.00 51 1012.8
20260501205225 25 225 8.0 19.3 0.00 0.00 0.00 51 1012.9
20260501204954 25 235 8.0 17.7 0.00 0.00 0.00 52 1012.9
20260501204222 25 232 8.0 16.1 0.00 0.00 0.00 53 1012.9
20260501203721 25 227 8.0 16.1 0.00 0.00 0.00 52 1012.9
20260501203220 24 238 6.4 14.5 0.00 0.00 0.00 53 1012.9
20260501202721 24 260 8.0 16.1 0.00 0.00 0.00 54 1013.0
20260501202221 23 236 8.0 16.1 0.00 0.00 0.00 56 1013.0
20260501201720 23 223 8.0 17.7 0.00 0.00 0.00 56 1013.1
20260501201217 23 225 9.7 17.7 0.00 0.00 0.00 56 1013.1
20260501200717 23 212 8.0 11.3 0.00 0.00 0.00 56 1013.2
20260501200212 23 213 4.8 11.3 0.00 0.00 0.00 57 1013.4
20260501195712 23 229 4.8 12.9 0.00 0.00 0.00 59 1013.4
20260501195213 22 206 6.4 12.9 0.00 0.00 0.00 61 1013.5
20260501194942 22 223 4.8 12.9 0.00 0.00 0.00 61 1013.5
20260501194210 22 223 6.4 14.5 0.00 0.00 0.00 62 1013.6
20260501193211 22 223 4.8 12.9 0.00 0.00 0.00 62 1013.8
20260501192710 22 228 3.2 8.0 0.00 0.00 0.00 62 1013.9
20260501192211 21 230 4.8 11.3 0.00 0.00 0.00 62 1014.0